Regional Weather Roundup
Issued by NWS

Home | Current Version | Previous Version | Graphics & Text | Print | Product List | Glossary On
Versions: 1 2 3 4 5 6 7 8 9 10 11 12 13 14 15 16 17 18 19 20 21 22 23 24 25 26 27 28 29 30 31 32 33 34 35 36 37 38 39 40 41 42 43 44 45 46 47 48 49 50
000
ASUS43 KOAX 160502
RWRNE

WEATHER ROUNDUP FOR NEBRASKA
NATIONAL WEATHER SERVICE OMAHA NE
1200 AM CDT TUE SEP 16 2014

NOTES: SATELLITE DATA IS BEING USED TO AUGMENT CLOUD COVER ABOVE
       12000 FEET.
       "FAIR" INDICATES FEW OR NO CLOUDS BELOW 12,000 FEET WITH NO
       SIGNIFICANT WEATHER AND/OR OBSTRUCTIONS TO VISIBILITY.

  * THESE STATIONS DO NOT REPORT WEATHER SUCH AS RAIN...SNOW OR FOG.

NEZ001>004-019>022-054>056-160600-
NEBRASKA PANHANDLE

CITY           SKY/WX    TMP DP  RH WIND       PRES   REMARKS
SCOTTSBLUFF    PTCLDY    55  47  74 E8        30.18R
ALLIANCE       CLEAR     53  45  74 S13       30.18F
CHADRON        CLEAR     60  46  59 SW12      30.10F
KIMBALL        PTCLDY    54  51  88 S9        30.20F
SIDNEY         CLEAR     54  48  80 S13       30.22F
$$

NEZ057>060-069>072-079>082-160600-
SOUTHWEST NEBRASKA

CITY           SKY/WX    TMP DP  RH WIND       PRES   REMARKS
NORTH PLATTE   CLEAR     44  42  93 E6        30.24F
IMPERIAL       CLEAR     51  43  74 S8        30.24F
LEXINGTON      CLEAR     49  44  81 SE5       30.26S
MCCOOK         CLEAR     51  43  74 SE7       30.27S
OGALLALA       CLEAR     53  47  78 CALM      30.23S
$$

NEZ005>010-023>029-035>040-094-160600-
NORTH CENTRAL NEBRASKA

CITY           SKY/WX    TMP DP  RH WIND       PRES   REMARKS
VALENTINE      CLEAR     52  39  61 S8        30.19F
AINSWORTH      CLEAR     46  39  77 S7        30.22S
BROKEN BOW     CLEAR     41  39  93 CALM      30.24F
O`NEILL        CLEAR     47  42  80 SE6       30.24S
ORD            CLEAR     44  40  85 CALM      30.24F
THEDFORD       CLEAR     51  42  72 S7        30.23S
$$

NEZ041-046>049-061>064-073>077-083>087-160600-
SOUTH CENTRAL NEBRASKA

CITY           SKY/WX    TMP DP  RH WIND       PRES   REMARKS
GRAND ISLAND   CLEAR     47  43  86 S5        30.27S
AURORA         CLEAR     47  44  90 CALM      30.27S
HASTINGS       CLEAR     48  43  82 SE3       30.27R
HEBRON         CLEAR     45  42  91 CALM      30.27S
HOLDREGE       CLEAR     46  42  84 CALM      30.26F
KEARNEY *      CLEAR     46  41  81 SE6       30.26F
YORK           LGT RAIN  46  45  93 E3        30.27F
$$

NEZ011>018-030>034-042>045-160600-
NORTHEAST NEBRASKA

CITY           SKY/WX    TMP DP  RH WIND       PRES   REMARKS
NORFOLK        CLEAR     44  41  89 CALM      30.26S
ALBION         CLEAR     41  38  90 CALM      30.26F FOG
BLAIR          CLEAR     50  44  80 CALM      30.26S
COLUMBUS *     CLEAR     39  37  93 CALM      30.28S
FREMONT        CLEAR     47  45  92 CALM      30.27F
TEKAMAH        CLEAR     45  42  89 CALM      30.26S
WAYNE          CLEAR     42  41  96 CALM      30.27S
$$

NEZ050>053-065>068-078-088>093-160600-
SOUTHEAST NEBRASKA

CITY           SKY/WX    TMP DP  RH WIND       PRES   REMARKS
LINCOLN        CLEAR     45  42  89 CALM      30.28S
OMAHA EPPLEY   CLEAR     50  47  89 CALM      30.27S
BEATRICE       CLEAR     47  44  91 CALM      30.27S
FALLS CITY     CLEAR     50  46  86 CALM      30.26S
NEBRASKA CITY  CLEAR     51  41  68 CALM      30.27S
PLATTSMOUTH    CLEAR     50  45  83 CALM      30.26S
$$

NEZ044-045-051>053-067-160600-
OMAHA AREA

CITY           SKY/WX    TMP DP  RH WIND       PRES   REMARKS
OMAHA EPPLEY   CLEAR     50  47  89 CALM      30.27S
BLAIR          CLEAR     50  44  80 CALM      30.26S
FREMONT        CLEAR     47  45  92 CALM      30.27F
MILLARD        CLEAR     48  47  95 CALM      30.26F
OFFUTT AFB     CLEAR     46  46 100 CALM      30.26S
PLATTSMOUTH    CLEAR     50  45  83 CALM      30.26S
WAHOO          FAIR      46  43  89 CALM      30.27S
$$



USA.gov is the U.S. government's official web portal to all federal, state and local government web resources and services.